Regional Weather Roundup
Issued by NWS

Home | Current Version | Previous Version | Graphics & Text | Print | Product List | Glossary On
Versions: 1 2 3 4 5 6 7 8 9 10 11 12 13 14 15 16 17 18 19 20 21 22 23 24 25 26 27
000
ASUS45 KBOI 051410
RWRID

IDAHO REGIONAL WEATHER ROUNDUP
NATIONAL WEATHER SERVICE BOISE ID
700 AM MST MON DEC 05 2016

NOTE: "FAIR" INDICATES FEW OR NO CLOUDS BELOW 12000 FEET
WITH NO SIGNIFICANT WEATHER AND/OR OBSTRUCTIONS TO VISIBILITY

IDZ012-014-051500-
SOUTHWEST IDAHO


CITY           SKY/WX    TMP DP  RH WIND       PRES   REMARKS
BOISE          CLEAR     21  15  78 CALM      30.12R
CALDWELL       CLEAR     24  15  68 W5        30.15R WCI  18
MOUNTAIN HOME  CLEAR     22  17  83 SW10      30.12R WCI  11
$$

IDZ016-017-051500-
SOUTHCENTRAL IDAHO


CITY           SKY/WX    TMP DP  RH WIND       PRES   REMARKS
BURLEY         CLEAR     19  13  77 W15G23    30.02R WCI   5
JEROME         CLEAR     19  15  84 SW12      30.05R WCI   7
TWIN FALLS     CLEAR     17  11  77 SW17      30.05R WCI   1
$$

IDZ019>023-051500-
SOUTHEAST IDAHO


CITY           SKY/WX    TMP DP  RH WIND       PRES   REMARKS
IDAHO FALLS    CLOUDY    21  10  62 SW3       29.93R
POCATELLO      PTCLDY    19  15  84 SW16      29.98R WCI   4
REXBURG        CLOUDY    20   1  43 CALM      29.90R
$$

IDZ006-010-011-018-031-032-051500-
CENTRAL IDAHO MOUNTAINS


CITY           SKY/WX    TMP DP  RH WIND       PRES   REMARKS
MCCALL         CLEAR      1  -3  83 CALM      29.97R
HAILEY         CLEAR     10   3  72 NW7       29.97R WCI   0
STANLEY          N/A     -6 -11  79 S5        29.92R WCI -17
SALMON         CLOUDY    18   7  62 S12       29.97R WCI   5
CHALLIS        CLEAR     11   4  73 CALM      29.94R
$$

IDZ002-004-006-007-026-051500-
NORTHERN IDAHO


CITY           SKY/WX    TMP DP  RH WIND       PRES   REMARKS
LEWISTON       CLEAR    N/A N/A N/A CALM      30.11R
LOWELL           N/A     29  26  89 CALM      30.15R
COEUR D`ALENE  CLEAR     22  17  81 SW3       30.05R
MULLAN PASS    CLEAR      8   4  83 NW8       29.81R WCI  -4
$$




USA.gov is the U.S. government's official web portal to all federal, state and local government web resources and services.